Sarasota, FL

12:19 PM EDT on April 19, 2018 (GMT -0400)
Sarasota-bradenton

Weather History for KSRQ - September, 2013

Change the Weather History Date:

Thursday, September 12, 2013

  Actual Average Record
Temperature  
Mean Temperature 82 °F 82 °F  
Max Temperature 89 °F 89 °F 94 °F (1988)
Min Temperature 74 °F 75 °F 65 °F (1956)
Degree Days  
Heating Degree Days 0 0  
Month to date heating degree days 0 0  
Since 1 July heating degree days 0 0  
Cooling Degree Days 17 17  
Month to date cooling degree days 217 204  
Year to date cooling degree days 2717 2501  
Growing Degree Days 32 (Base 50)    
Moisture  
Dew Point 72 °F    
Average Humidity 77    
Maximum Humidity 94    
Minimum Humidity 63    
Precipitation  
Precipitation T in 0.25 in 3.03 in (2009)
Month to date precipitation 2.55 3.60  
Year to date precipitation 41.16 41.93  
Sea Level Pressure  
Sea Level Pressure 29.95 in    
Wind  
Wind Speed 6 mph (East)    
Max Wind Speed 18 mph    
Max Gust Speed 22 mph    
Visibility 10 miles    
Events Rain , Thunderstorm    
T = Trace of Precipitation, MM = Missing Value Source: NWS Daily Summary

Daily Weather History Graph

Daily Weather History Graph

Search for Another Location

Airport or City:

Astronomy

Sep. 12, 2013 Rise Set
Actual Time 7:14 AM EDT 7:37 PM EDT
Civil Twilight 6:50 AM EDT 8:01 PM EDT
Nautical Twilight 6:23 AM EDT 8:28 PM EDT
Astronomical Twilight 5:55 AM EDT 8:56 PM EDT
Moon 2:06 PM EDT (9/12) 12:07 AM EDT (9/12)
Length of Visible Light 13h 10m
Length of Day
12h 23m
Waxing Crescent, 50% of the Moon is Illuminated
Sep 12
Waxing Crescent
Sep 12
First Quarter
Sep 19
Full
Sep 26
Last Quarter
Oct 4
New

Hourly Weather History & Observations

Time (EDT) Temp. Heat Index Dew Point Humidity Pressure Visibility Wind Dir Wind Speed Gust Speed Precip Events Conditions
12:53 AM 75.9 °F - 71.1 °F 85% 30.00 in 10.0 mi East 8.1 mph - N/A   Mostly Cloudy
1:53 AM 75.0 °F - 71.1 °F 87% 29.99 in 10.0 mi East 4.6 mph - N/A   Clear
2:53 AM 75.0 °F - 72.0 °F 90% 29.99 in 10.0 mi East 4.6 mph - N/A   Clear
3:53 AM 75.0 °F - 72.0 °F 90% 29.97 in 10.0 mi Calm Calm - N/A   Clear
4:53 AM 75.0 °F - 72.0 °F 90% 29.96 in 10.0 mi ENE 3.5 mph - N/A   Clear
5:53 AM 75.0 °F - 72.0 °F 90% 29.97 in 10.0 mi East 6.9 mph - N/A   Clear
6:53 AM 75.0 °F - 72.0 °F 90% 29.98 in 10.0 mi ENE 5.8 mph - N/A   Scattered Clouds
7:53 AM 75.9 °F - 73.0 °F 91% 29.99 in 10.0 mi ENE 5.8 mph - N/A   Mostly Cloudy
8:53 AM 79.0 °F - 73.9 °F 84% 30.00 in 10.0 mi East 6.9 mph - N/A   Clear
9:53 AM 82.0 °F 87.9 °F 73.9 °F 76% 30.00 in 10.0 mi East 5.8 mph - N/A   Clear
10:53 AM 84.9 °F 92.1 °F 73.9 °F 69% 30.00 in 10.0 mi ESE 8.1 mph - N/A   Partly Cloudy
11:53 AM 84.9 °F 91.4 °F 73.0 °F 67% 29.99 in 10.0 mi SE 5.8 mph - N/A   Scattered Clouds
12:53 PM 88.0 °F 95.6 °F 73.0 °F 61% 29.97 in 10.0 mi SSE 3.5 mph - N/A   Mostly Cloudy
1:53 PM 87.1 °F 95.4 °F 73.9 °F 65% 29.96 in 10.0 mi West 6.9 mph - 0.00 in Rain Light Rain
2:53 PM 86.0 °F 93.0 °F 73.0 °F 65% 29.94 in 10.0 mi North 8.1 mph - 0.00 in   Mostly Cloudy
3:11 PM 86.0 °F 93.4 °F 73.4 °F 66% 29.93 in 10.0 mi ENE 4.6 mph - N/A Thunderstorm Overcast
3:34 PM 84.2 °F 89.6 °F 71.6 °F 66% 29.93 in 10.0 mi ESE 10.4 mph - N/A Thunderstorm Mostly Cloudy
3:53 PM 84.9 °F 90.7 °F 72.0 °F 65% 29.91 in 10.0 mi SE 3.5 mph - N/A   Partly Cloudy
4:53 PM 87.1 °F 94.5 °F 73.0 °F 63% 29.89 in 10.0 mi West 8.1 mph - N/A   Clear
5:53 PM 84.0 °F 91.2 °F 73.9 °F 72% 29.89 in 10.0 mi NNE 9.2 mph - N/A Thunderstorm Scattered Clouds
6:01 PM 80.6 °F 83.9 °F 69.8 °F 70% 29.90 in 10.0 mi NNE 10.4 mph 21.9 mph N/A Thunderstorm Mostly Cloudy
6:09 PM 80.6 °F 83.9 °F 69.8 °F 70% 29.90 in 10.0 mi NE 9.2 mph - N/A Thunderstorm Scattered Clouds
6:17 PM 82.4 °F 86.3 °F 69.8 °F 66% 29.90 in 10.0 mi NE 9.2 mph - N/A   Scattered Clouds
6:53 PM 82.9 °F 86.5 °F 69.1 °F 63% 29.91 in 10.0 mi ENE 3.5 mph - N/A   Scattered Clouds
7:38 PM 80.6 °F 84.6 °F 71.6 °F 74% 29.92 in 10.0 mi ESE 15.0 mph 20.7 mph N/A Thunderstorm Overcast
7:53 PM 78.1 °F - 73.0 °F 84% 29.94 in 10.0 mi East 10.4 mph - N/A   Overcast
8:53 PM 75.9 °F - 71.1 °F 85% 29.94 in 10.0 mi SE 11.5 mph - N/A   Partly Cloudy
9:53 PM 75.0 °F - 70.0 °F 84% 29.93 in 10.0 mi SE 6.9 mph - N/A   Clear
10:53 PM 75.0 °F - 70.0 °F 84% 29.92 in 10.0 mi SE 3.5 mph - N/A   Clear
11:53 PM 73.9 °F - 70.0 °F 87% 29.91 in 10.0 mi Calm Calm - N/A   Clear